owner,sensor,date,latitude,longitude,relative_humidity,qcFlag 
COMPS,ioos:station:USF.COMPS:TAR:1,2014-07-01T00:00:00Z,28.1560,-82.7580,55.47,1111122 
COMPS,ioos:station:USF.COMPS:TAR:1,2014-07-01T00:06:00Z,28.1560,-82.7580,54.73,1111122 
COMPS,ioos:station:USF.COMPS:TAR:1,2014-07-01T00:12:00Z,28.1560,-82.7580,56.96,1111122 
COMPS,ioos:station:USF.COMPS:TAR:1,2014-07-01T00:18:00Z,28.1560,-82.7580,57.6,1111122 
COMPS,ioos:station:USF.COMPS:TAR:1,2014-07-01T00:24:00Z,28.1560,-82.7580,56.49,1111122 
COMPS,ioos:station:USF.COMPS:TAR:1,2014-07-01T00:30:00Z,28.1560,-82.7580,57.33,1111122 
COMPS,ioos:station:USF.COMPS:TAR:1,2014-07-01T00:36:00Z,28.1560,-82.7580,61.35,1111122 
COMPS,ioos:station:USF.COMPS:TAR:1,2014-07-01T00:42:00Z,28.1560,-82.7580,65.42,1111122 
COMPS,ioos:station:USF.COMPS:TAR:1,2014-07-01T00:48:00Z,28.1560,-82.7580,66.52,1111122 
COMPS,ioos:station:USF.COMPS:TAR:1,2014-07-01T00:54:00Z,28.1560,-82.7580,67.94,1111122 
COMPS,ioos:station:USF.COMPS:TAR:1,2014-07-01T01:00:00Z,28.1560,-82.7580,66.27,1111122 
COMPS,ioos:station:USF.COMPS:TAR:1,2014-07-01T01:06:00Z,28.1560,-82.7580,66.41,1111122 
COMPS,ioos:station:USF.COMPS:TAR:1,2014-07-01T01:12:00Z,28.1560,-82.7580,70.13,1111122 
COMPS,ioos:station:USF.COMPS:TAR:1,2014-07-01T01:18:00Z,28.1560,-82.7580,74.81,1111122 
COMPS,ioos:station:USF.COMPS:TAR:1,2014-07-01T01:24:00Z,28.1560,-82.7580,83.25,1111122 
COMPS,ioos:station:USF.COMPS:TAR:1,2014-07-01T01:30:00Z,28.1560,-82.7580,85.5,1111122 
COMPS,ioos:station:USF.COMPS:TAR:1,2014-07-01T01:36:00Z,28.1560,-82.7580,85.91,1111122 
COMPS,ioos:station:USF.COMPS:TAR:1,2014-07-01T01:42:00Z,28.1560,-82.7580,86.98,1111122 
COMPS,ioos:station:USF.COMPS:TAR:1,2014-07-01T01:48:00Z,28.1560,-82.7580,87.83,1111122 
COMPS,ioos:station:USF.COMPS:TAR:1,2014-07-01T01:54:00Z,28.1560,-82.7580,88.53,1111122 
COMPS,ioos:station:USF.COMPS:TAR:1,2014-07-01T02:00:00Z,28.1560,-82.7580,87.86,1111122 
COMPS,ioos:station:USF.COMPS:TAR:1,2014-07-01T02:06:00Z,28.1560,-82.7580,88.64,1111122 
COMPS,ioos:station:USF.COMPS:TAR:1,2014-07-01T02:12:00Z,28.1560,-82.7580,88.85,1111122 
COMPS,ioos:station:USF.COMPS:TAR:1,2014-07-01T02:18:00Z,28.1560,-82.7580,88.49,1111122 
COMPS,ioos:station:USF.COMPS:TAR:1,2014-07-01T02:24:00Z,28.1560,-82.7580,87.75,1111122 
COMPS,ioos:station:USF.COMPS:TAR:1,2014-07-01T02:30:00Z,28.1560,-82.7580,86.03,1111122 
COMPS,ioos:station:USF.COMPS:TAR:1,2014-07-01T02:36:00Z,28.1560,-82.7580,85.23,1111122 
COMPS,ioos:station:USF.COMPS:TAR:1,2014-07-01T02:42:00Z,28.1560,-82.7580,84.88,1111122 
COMPS,ioos:station:USF.COMPS:TAR:1,2014-07-01T02:48:00Z,28.1560,-82.7580,85.59,1111122 
COMPS,ioos:station:USF.COMPS:TAR:1,2014-07-01T02:54:00Z,28.1560,-82.7580,86.63,1111122 
COMPS,ioos:station:USF.COMPS:TAR:1,2014-07-01T03:00:00Z,28.1560,-82.7580,87.17,1111122 
COMPS,ioos:station:USF.COMPS:TAR:1,2014-07-01T03:06:00Z,28.1560,-82.7580,88.04,1111122 
COMPS,ioos:station:USF.COMPS:TAR:1,2014-07-01T03:12:00Z,28.1560,-82.7580,87.71,1111122 
COMPS,ioos:station:USF.COMPS:TAR:1,2014-07-01T03:18:00Z,28.1560,-82.7580,86.72,1111122 
COMPS,ioos:station:USF.COMPS:TAR:1,2014-07-01T03:24:00Z,28.1560,-82.7580,85.02,1111122 
COMPS,ioos:station:USF.COMPS:TAR:1,2014-07-01T03:30:00Z,28.1560,-82.7580,84.7,1111122 
COMPS,ioos:station:USF.COMPS:TAR:1,2014-07-01T03:36:00Z,28.1560,-82.7580,85.03,1111122 
COMPS,ioos:station:USF.COMPS:TAR:1,2014-07-01T03:42:00Z,28.1560,-82.7580,86.94,1111122 
COMPS,ioos:station:USF.COMPS:TAR:1,2014-07-01T03:48:00Z,28.1560,-82.7580,87.36,1111122 
COMPS,ioos:station:USF.COMPS:TAR:1,2014-07-01T03:54:00Z,28.1560,-82.7580,87.08,1111122 
COMPS,ioos:station:USF.COMPS:TAR:1,2014-07-01T04:00:00Z,28.1560,-82.7580,85.35,1111122 
COMPS,ioos:station:USF.COMPS:TAR:1,2014-07-01T04:06:00Z,28.1560,-82.7580,86.17,1111122 
COMPS,ioos:station:USF.COMPS:TAR:1,2014-07-01T04:12:00Z,28.1560,-82.7580,85.04,1111122 
COMPS,ioos:station:USF.COMPS:TAR:1,2014-07-01T04:18:00Z,28.1560,-82.7580,83.21,1111122 
COMPS,ioos:station:USF.COMPS:TAR:1,2014-07-01T04:24:00Z,28.1560,-82.7580,83.81,1111122 
COMPS,ioos:station:USF.COMPS:TAR:1,2014-07-01T04:30:00Z,28.1560,-82.7580,84.45,1111122 
COMPS,ioos:station:USF.COMPS:TAR:1,2014-07-01T04:36:00Z,28.1560,-82.7580,86.6,1111122 
COMPS,ioos:station:USF.COMPS:TAR:1,2014-07-01T04:42:00Z,28.1560,-82.7580,86.09,1111122 
COMPS,ioos:station:USF.COMPS:TAR:1,2014-07-01T04:48:00Z,28.1560,-82.7580,88.04,1111122 
COMPS,ioos:station:USF.COMPS:TAR:1,2014-07-01T04:54:00Z,28.1560,-82.7580,87.69,1111122 
COMPS,ioos:station:USF.COMPS:TAR:1,2014-07-01T05:00:00Z,28.1560,-82.7580,87.66,1111122 
COMPS,ioos:station:USF.COMPS:TAR:1,2014-07-01T05:06:00Z,28.1560,-82.7580,87.25,1111122 
COMPS,ioos:station:USF.COMPS:TAR:1,2014-07-01T05:12:00Z,28.1560,-82.7580,86.93,1111122 
COMPS,ioos:station:USF.COMPS:TAR:1,2014-07-01T05:18:00Z,28.1560,-82.7580,85.9,1111122 
COMPS,ioos:station:USF.COMPS:TAR:1,2014-07-01T05:24:00Z,28.1560,-82.7580,85.33,1111122 
COMPS,ioos:station:USF.COMPS:TAR:1,2014-07-01T05:30:00Z,28.1560,-82.7580,84.77,1111122 
COMPS,ioos:station:USF.COMPS:TAR:1,2014-07-01T05:36:00Z,28.1560,-82.7580,85.03,1111122 
COMPS,ioos:station:USF.COMPS:TAR:1,2014-07-01T05:42:00Z,28.1560,-82.7580,84.88,1111122 
COMPS,ioos:station:USF.COMPS:TAR:1,2014-07-01T05:48:00Z,28.1560,-82.7580,84.73,1111122 
COMPS,ioos:station:USF.COMPS:TAR:1,2014-07-01T05:54:00Z,28.1560,-82.7580,84.57,1111122 
COMPS,ioos:station:USF.COMPS:TAR:1,2014-07-01T06:00:00Z,28.1560,-82.7580,85.29,1111122 
COMPS,ioos:station:USF.COMPS:TAR:1,2014-07-01T06:06:00Z,28.1560,-82.7580,85.94,1111122 
COMPS,ioos:station:USF.COMPS:TAR:1,2014-07-01T06:12:00Z,28.1560,-82.7580,87.05,1111122 
COMPS,ioos:station:USF.COMPS:TAR:1,2014-07-01T06:18:00Z,28.1560,-82.7580,86.58,1111122 
COMPS,ioos:station:USF.COMPS:TAR:1,2014-07-01T06:24:00Z,28.1560,-82.7580,85.52,1111122 
COMPS,ioos:station:USF.COMPS:TAR:1,2014-07-01T06:30:00Z,28.1560,-82.7580,83.38,1111122 
COMPS,ioos:station:USF.COMPS:TAR:1,2014-07-01T06:36:00Z,28.1560,-82.7580,83.05,1111122 
COMPS,ioos:station:USF.COMPS:TAR:1,2014-07-01T06:42:00Z,28.1560,-82.7580,82.27,1111122 
COMPS,ioos:station:USF.COMPS:TAR:1,2014-07-01T06:48:00Z,28.1560,-82.7580,82.4,1111122 
COMPS,ioos:station:USF.COMPS:TAR:1,2014-07-01T06:54:00Z,28.1560,-82.7580,82.4,1111122 
COMPS,ioos:station:USF.COMPS:TAR:1,2014-07-01T07:00:00Z,28.1560,-82.7580,83.73,1111122 
COMPS,ioos:station:USF.COMPS:TAR:1,2014-07-01T07:06:00Z,28.1560,-82.7580,83.12,1111122 
COMPS,ioos:station:USF.COMPS:TAR:1,2014-07-01T07:12:00Z,28.1560,-82.7580,82.61,1111122 
COMPS,ioos:station:USF.COMPS:TAR:1,2014-07-01T07:18:00Z,28.1560,-82.7580,82.33,1111122 
COMPS,ioos:station:USF.COMPS:TAR:1,2014-07-01T07:24:00Z,28.1560,-82.7580,83.12,1111122 
COMPS,ioos:station:USF.COMPS:TAR:1,2014-07-01T07:30:00Z,28.1560,-82.7580,82.97,1111122 
COMPS,ioos:station:USF.COMPS:TAR:1,2014-07-01T07:36:00Z,28.1560,-82.7580,83.99,1111122 
COMPS,ioos:station:USF.COMPS:TAR:1,2014-07-01T07:42:00Z,28.1560,-82.7580,85.66,1111122 
COMPS,ioos:station:USF.COMPS:TAR:1,2014-07-01T07:48:00Z,28.1560,-82.7580,86.8,1111122 
COMPS,ioos:station:USF.COMPS:TAR:1,2014-07-01T07:54:00Z,28.1560,-82.7580,86.58,1111122 
COMPS,ioos:station:USF.COMPS:TAR:1,2014-07-01T08:00:00Z,28.1560,-82.7580,86.3,1111122 
COMPS,ioos:station:USF.COMPS:TAR:1,2014-07-01T08:06:00Z,28.1560,-82.7580,87.34,1111122 
COMPS,ioos:station:USF.COMPS:TAR:1,2014-07-01T08:12:00Z,28.1560,-82.7580,87.85,1111122 
COMPS,ioos:station:USF.COMPS:TAR:1,2014-07-01T08:18:00Z,28.1560,-82.7580,86.58,1111122 
COMPS,ioos:station:USF.COMPS:TAR:1,2014-07-01T08:24:00Z,28.1560,-82.7580,87.0,1111122 
COMPS,ioos:station:USF.COMPS:TAR:1,2014-07-01T08:30:00Z,28.1560,-82.7580,86.73,1111122 
COMPS,ioos:station:USF.COMPS:TAR:1,2014-07-01T08:36:00Z,28.1560,-82.7580,86.92,1111122 
COMPS,ioos:station:USF.COMPS:TAR:1,2014-07-01T08:42:00Z,28.1560,-82.7580,87.35,1111122 
COMPS,ioos:station:USF.COMPS:TAR:1,2014-07-01T08:48:00Z,28.1560,-82.7580,87.34,1111122 
COMPS,ioos:station:USF.COMPS:TAR:1,2014-07-01T08:54:00Z,28.1560,-82.7580,87.06,1111122 
COMPS,ioos:station:USF.COMPS:TAR:1,2014-07-01T09:00:00Z,28.1560,-82.7580,86.58,1111122 
COMPS,ioos:station:USF.COMPS:TAR:1,2014-07-01T09:06:00Z,28.1560,-82.7580,86.16,1111122 
COMPS,ioos:station:USF.COMPS:TAR:1,2014-07-01T09:12:00Z,28.1560,-82.7580,85.92,1111122 
COMPS,ioos:station:USF.COMPS:TAR:1,2014-07-01T09:18:00Z,28.1560,-82.7580,86.28,1111122 
COMPS,ioos:station:USF.COMPS:TAR:1,2014-07-01T09:24:00Z,28.1560,-82.7580,86.73,1111122 
COMPS,ioos:station:USF.COMPS:TAR:1,2014-07-01T09:30:00Z,28.1560,-82.7580,87.1,1111122 
COMPS,ioos:station:USF.COMPS:TAR:1,2014-07-01T09:36:00Z,28.1560,-82.7580,87.0,1111122 
COMPS,ioos:station:USF.COMPS:TAR:1,2014-07-01T09:42:00Z,28.1560,-82.7580,86.82,1111122 
COMPS,ioos:station:USF.COMPS:TAR:1,2014-07-01T09:48:00Z,28.1560,-82.7580,87.19,1111122 
COMPS,ioos:station:USF.COMPS:TAR:1,2014-07-01T09:54:00Z,28.1560,-82.7580,87.17,1111122 
COMPS,ioos:station:USF.COMPS:TAR:1,2014-07-01T10:00:00Z,28.1560,-82.7580,86.88,1111122 
COMPS,ioos:station:USF.COMPS:TAR:1,2014-07-01T10:06:00Z,28.1560,-82.7580,87.25,1111122 
COMPS,ioos:station:USF.COMPS:TAR:1,2014-07-01T10:12:00Z,28.1560,-82.7580,87.3,1111122 
COMPS,ioos:station:USF.COMPS:TAR:1,2014-07-01T10:18:00Z,28.1560,-82.7580,87.15,1111122 
COMPS,ioos:station:USF.COMPS:TAR:1,2014-07-01T10:24:00Z,28.1560,-82.7580,87.53,1111122 
COMPS,ioos:station:USF.COMPS:TAR:1,2014-07-01T10:30:00Z,28.1560,-82.7580,87.95,1111122 
COMPS,ioos:station:USF.COMPS:TAR:1,2014-07-01T10:36:00Z,28.1560,-82.7580,87.6,1111122 
COMPS,ioos:station:USF.COMPS:TAR:1,2014-07-01T10:42:00Z,28.1560,-82.7580,87.96,1111122 
COMPS,ioos:station:USF.COMPS:TAR:1,2014-07-01T10:48:00Z,28.1560,-82.7580,87.4,1111122 
COMPS,ioos:station:USF.COMPS:TAR:1,2014-07-01T10:54:00Z,28.1560,-82.7580,87.09,1111122 
COMPS,ioos:station:USF.COMPS:TAR:1,2014-07-01T11:00:00Z,28.1560,-82.7580,86.73,1111122 
COMPS,ioos:station:USF.COMPS:TAR:1,2014-07-01T11:06:00Z,28.1560,-82.7580,85.97,1111122 
COMPS,ioos:station:USF.COMPS:TAR:1,2014-07-01T11:12:00Z,28.1560,-82.7580,86.05,1111122 
COMPS,ioos:station:USF.COMPS:TAR:1,2014-07-01T11:18:00Z,28.1560,-82.7580,85.75,1111122 
COMPS,ioos:station:USF.COMPS:TAR:1,2014-07-01T11:24:00Z,28.1560,-82.7580,85.24,1111122 
COMPS,ioos:station:USF.COMPS:TAR:1,2014-07-01T11:30:00Z,28.1560,-82.7580,83.18,1111122 
COMPS,ioos:station:USF.COMPS:TAR:1,2014-07-01T11:36:00Z,28.1560,-82.7580,80.75,1111122 
COMPS,ioos:station:USF.COMPS:TAR:1,2014-07-01T11:42:00Z,28.1560,-82.7580,79.66,1111122 
COMPS,ioos:station:USF.COMPS:TAR:1,2014-07-01T11:48:00Z,28.1560,-82.7580,79.12,1111122 
COMPS,ioos:station:USF.COMPS:TAR:1,2014-07-01T11:54:00Z,28.1560,-82.7580,77.91,1111122 
COMPS,ioos:station:USF.COMPS:TAR:1,2014-07-01T12:00:00Z,28.1560,-82.7580,78.49,1111122 
COMPS,ioos:station:USF.COMPS:TAR:1,2014-07-01T12:06:00Z,28.1560,-82.7580,77.58,1111122 
COMPS,ioos:station:USF.COMPS:TAR:1,2014-07-01T12:12:00Z,28.1560,-82.7580,77.31,1111122 
COMPS,ioos:station:USF.COMPS:TAR:1,2014-07-01T12:18:00Z,28.1560,-82.7580,76.49,1111122 
COMPS,ioos:station:USF.COMPS:TAR:1,2014-07-01T12:24:00Z,28.1560,-82.7580,74.37,1111122 
COMPS,ioos:station:USF.COMPS:TAR:1,2014-07-01T12:30:00Z,28.1560,-82.7580,75.68,1111122 
COMPS,ioos:station:USF.COMPS:TAR:1,2014-07-01T12:36:00Z,28.1560,-82.7580,74.7,1111122 
COMPS,ioos:station:USF.COMPS:TAR:1,2014-07-01T12:42:00Z,28.1560,-82.7580,72.95,1111122 
COMPS,ioos:station:USF.COMPS:TAR:1,2014-07-01T12:48:00Z,28.1560,-82.7580,72.83,1111122 
COMPS,ioos:station:USF.COMPS:TAR:1,2014-07-01T12:54:00Z,28.1560,-82.7580,71.54,1111122 
COMPS,ioos:station:USF.COMPS:TAR:1,2014-07-01T13:00:00Z,28.1560,-82.7580,69.23,1111122 
COMPS,ioos:station:USF.COMPS:TAR:1,2014-07-01T13:06:00Z,28.1560,-82.7580,66.11,1111122 
COMPS,ioos:station:USF.COMPS:TAR:1,2014-07-01T13:12:00Z,28.1560,-82.7580,64.0,1111122 
COMPS,ioos:station:USF.COMPS:TAR:1,2014-07-01T13:18:00Z,28.1560,-82.7580,62.98,1111122 
COMPS,ioos:station:USF.COMPS:TAR:1,2014-07-01T13:24:00Z,28.1560,-82.7580,61.52,1111122 
COMPS,ioos:station:USF.COMPS:TAR:1,2014-07-01T13:30:00Z,28.1560,-82.7580,61.51,1111122 
COMPS,ioos:station:USF.COMPS:TAR:1,2014-07-01T13:36:00Z,28.1560,-82.7580,59.74,1111122 
COMPS,ioos:station:USF.COMPS:TAR:1,2014-07-01T13:42:00Z,28.1560,-82.7580,58.75,1111122 
COMPS,ioos:station:USF.COMPS:TAR:1,2014-07-01T13:48:00Z,28.1560,-82.7580,55.35,1111122 
COMPS,ioos:station:USF.COMPS:TAR:1,2014-07-01T13:54:00Z,28.1560,-82.7580,52.58,1111122 
COMPS,ioos:station:USF.COMPS:TAR:1,2014-07-01T14:00:00Z,28.1560,-82.7580,50.48,1111122 
COMPS,ioos:station:USF.COMPS:TAR:1,2014-07-01T14:06:00Z,28.1560,-82.7580,47.41,1111122 
COMPS,ioos:station:USF.COMPS:TAR:1,2014-07-01T14:12:00Z,28.1560,-82.7580,45.26,1111122 
COMPS,ioos:station:USF.COMPS:TAR:1,2014-07-01T14:18:00Z,28.1560,-82.7580,45.02,1111122 
COMPS,ioos:station:USF.COMPS:TAR:1,2014-07-01T14:24:00Z,28.1560,-82.7580,44.96,1111122 
COMPS,ioos:station:USF.COMPS:TAR:1,2014-07-01T14:30:00Z,28.1560,-82.7580,42.17,1111122 
COMPS,ioos:station:USF.COMPS:TAR:1,2014-07-01T14:36:00Z,28.1560,-82.7580,41.24,1111122 
COMPS,ioos:station:USF.COMPS:TAR:1,2014-07-01T14:42:00Z,28.1560,-82.7580,41.12,1111122 
COMPS,ioos:station:USF.COMPS:TAR:1,2014-07-01T14:48:00Z,28.1560,-82.7580,43.72,1111122 
COMPS,ioos:station:USF.COMPS:TAR:1,2014-07-01T14:54:00Z,28.1560,-82.7580,47.47,1111122 
COMPS,ioos:station:USF.COMPS:TAR:1,2014-07-01T15:00:00Z,28.1560,-82.7580,49.38,1111122 
COMPS,ioos:station:USF.COMPS:TAR:1,2014-07-01T15:06:00Z,28.1560,-82.7580,48.89,1111122 
COMPS,ioos:station:USF.COMPS:TAR:1,2014-07-01T15:12:00Z,28.1560,-82.7580,48.11,1111122 
COMPS,ioos:station:USF.COMPS:TAR:1,2014-07-01T15:18:00Z,28.1560,-82.7580,44.35,1111122 
COMPS,ioos:station:USF.COMPS:TAR:1,2014-07-01T15:24:00Z,28.1560,-82.7580,44.54,1111122 
COMPS,ioos:station:USF.COMPS:TAR:1,2014-07-01T15:30:00Z,28.1560,-82.7580,43.66,1111122 
COMPS,ioos:station:USF.COMPS:TAR:1,2014-07-01T15:36:00Z,28.1560,-82.7580,41.41,1111122 
COMPS,ioos:station:USF.COMPS:TAR:1,2014-07-01T15:42:00Z,28.1560,-82.7580,42.44,1111122 
COMPS,ioos:station:USF.COMPS:TAR:1,2014-07-01T15:48:00Z,28.1560,-82.7580,46.79,1111122 
COMPS,ioos:station:USF.COMPS:TAR:1,2014-07-01T15:54:00Z,28.1560,-82.7580,45.11,1111122 
COMPS,ioos:station:USF.COMPS:TAR:1,2014-07-01T16:00:00Z,28.1560,-82.7580,43.05,1111122 
COMPS,ioos:station:USF.COMPS:TAR:1,2014-07-01T16:06:00Z,28.1560,-82.7580,44.02,1111122 
COMPS,ioos:station:USF.COMPS:TAR:1,2014-07-01T16:12:00Z,28.1560,-82.7580,45.56,1111122 
COMPS,ioos:station:USF.COMPS:TAR:1,2014-07-01T16:18:00Z,28.1560,-82.7580,45.16,1111122 
COMPS,ioos:station:USF.COMPS:TAR:1,2014-07-01T16:24:00Z,28.1560,-82.7580,43.99,1111122 
COMPS,ioos:station:USF.COMPS:TAR:1,2014-07-01T16:30:00Z,28.1560,-82.7580,43.56,1111122 
COMPS,ioos:station:USF.COMPS:TAR:1,2014-07-01T16:36:00Z,28.1560,-82.7580,42.4,1111122 
COMPS,ioos:station:USF.COMPS:TAR:1,2014-07-01T16:42:00Z,28.1560,-82.7580,43.04,1111122 
COMPS,ioos:station:USF.COMPS:TAR:1,2014-07-01T16:48:00Z,28.1560,-82.7580,43.3,1111122 
COMPS,ioos:station:USF.COMPS:TAR:1,2014-07-01T16:54:00Z,28.1560,-82.7580,44.67,1111122 
COMPS,ioos:station:USF.COMPS:TAR:1,2014-07-01T17:00:00Z,28.1560,-82.7580,45.49,1111122 
COMPS,ioos:station:USF.COMPS:TAR:1,2014-07-01T17:06:00Z,28.1560,-82.7580,46.45,1111122 
COMPS,ioos:station:USF.COMPS:TAR:1,2014-07-01T17:12:00Z,28.1560,-82.7580,47.31,1111122 
COMPS,ioos:station:USF.COMPS:TAR:1,2014-07-01T17:18:00Z,28.1560,-82.7580,46.82,1111122 
COMPS,ioos:station:USF.COMPS:TAR:1,2014-07-01T17:24:00Z,28.1560,-82.7580,47.19,1111122 
COMPS,ioos:station:USF.COMPS:TAR:1,2014-07-01T17:30:00Z,28.1560,-82.7580,47.55,1111122 
COMPS,ioos:station:USF.COMPS:TAR:1,2014-07-01T17:36:00Z,28.1560,-82.7580,49.54,1111122 
COMPS,ioos:station:USF.COMPS:TAR:1,2014-07-01T17:42:00Z,28.1560,-82.7580,49.55,1111122 
COMPS,ioos:station:USF.COMPS:TAR:1,2014-07-01T17:48:00Z,28.1560,-82.7580,48.92,1111122 
COMPS,ioos:station:USF.COMPS:TAR:1,2014-07-01T17:54:00Z,28.1560,-82.7580,48.67,1111122 
COMPS,ioos:station:USF.COMPS:TAR:1,2014-07-01T18:00:00Z,28.1560,-82.7580,48.35,1111122 
COMPS,ioos:station:USF.COMPS:TAR:1,2014-07-01T18:06:00Z,28.1560,-82.7580,49.34,1111122 
COMPS,ioos:station:USF.COMPS:TAR:1,2014-07-01T18:12:00Z,28.1560,-82.7580,48.72,1111122 
COMPS,ioos:station:USF.COMPS:TAR:1,2014-07-01T18:18:00Z,28.1560,-82.7580,48.69,1111122 
COMPS,ioos:station:USF.COMPS:TAR:1,2014-07-01T18:24:00Z,28.1560,-82.7580,48.99,1111122 
COMPS,ioos:station:USF.COMPS:TAR:1,2014-07-01T18:30:00Z,28.1560,-82.7580,50.24,1111122 
COMPS,ioos:station:USF.COMPS:TAR:1,2014-07-01T18:36:00Z,28.1560,-82.7580,51.97,1111122 
COMPS,ioos:station:USF.COMPS:TAR:1,2014-07-01T18:42:00Z,28.1560,-82.7580,52.17,1111122 
COMPS,ioos:station:USF.COMPS:TAR:1,2014-07-01T18:48:00Z,28.1560,-82.7580,54.53,1111122 
COMPS,ioos:station:USF.COMPS:TAR:1,2014-07-01T18:54:00Z,28.1560,-82.7580,52.77,1111122 
COMPS,ioos:station:USF.COMPS:TAR:1,2014-07-01T19:00:00Z,28.1560,-82.7580,49.49,1111122 
COMPS,ioos:station:USF.COMPS:TAR:1,2014-07-01T19:06:00Z,28.1560,-82.7580,51.45,1111122 
COMPS,ioos:station:USF.COMPS:TAR:1,2014-07-01T19:12:00Z,28.1560,-82.7580,51.65,1111122 
COMPS,ioos:station:USF.COMPS:TAR:1,2014-07-01T19:18:00Z,28.1560,-82.7580,52.82,1111122 
COMPS,ioos:station:USF.COMPS:TAR:1,2014-07-01T19:24:00Z,28.1560,-82.7580,50.94,1111122 
COMPS,ioos:station:USF.COMPS:TAR:1,2014-07-01T19:30:00Z,28.1560,-82.7580,49.8,1111122 
COMPS,ioos:station:USF.COMPS:TAR:1,2014-07-01T19:36:00Z,28.1560,-82.7580,51.12,1111122 
COMPS,ioos:station:USF.COMPS:TAR:1,2014-07-01T19:42:00Z,28.1560,-82.7580,51.41,1111122 
COMPS,ioos:station:USF.COMPS:TAR:1,2014-07-01T19:48:00Z,28.1560,-82.7580,52.99,1111122 
COMPS,ioos:station:USF.COMPS:TAR:1,2014-07-01T19:54:00Z,28.1560,-82.7580,51.54,1111122 
COMPS,ioos:station:USF.COMPS:TAR:1,2014-07-01T20:00:00Z,28.1560,-82.7580,49.39,1111122 
COMPS,ioos:station:USF.COMPS:TAR:1,2014-07-01T20:06:00Z,28.1560,-82.7580,50.01,1111122 
COMPS,ioos:station:USF.COMPS:TAR:1,2014-07-01T20:12:00Z,28.1560,-82.7580,51.5,1111122 
COMPS,ioos:station:USF.COMPS:TAR:1,2014-07-01T20:18:00Z,28.1560,-82.7580,50.55,1111122 
COMPS,ioos:station:USF.COMPS:TAR:1,2014-07-01T20:24:00Z,28.1560,-82.7580,49.99,1111122 
COMPS,ioos:station:USF.COMPS:TAR:1,2014-07-01T20:30:00Z,28.1560,-82.7580,50.57,1111122 
COMPS,ioos:station:USF.COMPS:TAR:1,2014-07-01T20:36:00Z,28.1560,-82.7580,50.51,1111122 
COMPS,ioos:station:USF.COMPS:TAR:1,2014-07-01T20:42:00Z,28.1560,-82.7580,52.78,1111122 
COMPS,ioos:station:USF.COMPS:TAR:1,2014-07-01T20:48:00Z,28.1560,-82.7580,53.91,1111122 
COMPS,ioos:station:USF.COMPS:TAR:1,2014-07-01T20:54:00Z,28.1560,-82.7580,53.11,1111122 
COMPS,ioos:station:USF.COMPS:TAR:1,2014-07-01T21:00:00Z,28.1560,-82.7580,52.88,1111122 
COMPS,ioos:station:USF.COMPS:TAR:1,2014-07-01T21:06:00Z,28.1560,-82.7580,51.02,1111122 
COMPS,ioos:station:USF.COMPS:TAR:1,2014-07-01T21:12:00Z,28.1560,-82.7580,51.55,1111122 
COMPS,ioos:station:USF.COMPS:TAR:1,2014-07-01T21:18:00Z,28.1560,-82.7580,52.34,1111122 
COMPS,ioos:station:USF.COMPS:TAR:1,2014-07-01T21:24:00Z,28.1560,-82.7580,50.8,1111122 
COMPS,ioos:station:USF.COMPS:TAR:1,2014-07-01T21:30:00Z,28.1560,-82.7580,50.78,1111122 
COMPS,ioos:station:USF.COMPS:TAR:1,2014-07-01T21:36:00Z,28.1560,-82.7580,51.0,1111122 
COMPS,ioos:station:USF.COMPS:TAR:1,2014-07-01T21:42:00Z,28.1560,-82.7580,51.1,1111122 
COMPS,ioos:station:USF.COMPS:TAR:1,2014-07-01T21:48:00Z,28.1560,-82.7580,51.92,1111122 
COMPS,ioos:station:USF.COMPS:TAR:1,2014-07-01T21:54:00Z,28.1560,-82.7580,51.91,1111122 
COMPS,ioos:station:USF.COMPS:TAR:1,2014-07-01T22:00:00Z,28.1560,-82.7580,50.94,1111122 
COMPS,ioos:station:USF.COMPS:TAR:1,2014-07-01T22:06:00Z,28.1560,-82.7580,51.55,1111122 
COMPS,ioos:station:USF.COMPS:TAR:1,2014-07-01T22:12:00Z,28.1560,-82.7580,52.85,1111122 
COMPS,ioos:station:USF.COMPS:TAR:1,2014-07-01T22:18:00Z,28.1560,-82.7580,54.13,1111122 
COMPS,ioos:station:USF.COMPS:TAR:1,2014-07-01T22:24:00Z,28.1560,-82.7580,55.21,1111122 
COMPS,ioos:station:USF.COMPS:TAR:1,2014-07-01T22:30:00Z,28.1560,-82.7580,56.46,1111122 
COMPS,ioos:station:USF.COMPS:TAR:1,2014-07-01T22:36:00Z,28.1560,-82.7580,56.28,1111122 
COMPS,ioos:station:USF.COMPS:TAR:1,2014-07-01T22:42:00Z,28.1560,-82.7580,56.75,1111122 
COMPS,ioos:station:USF.COMPS:TAR:1,2014-07-01T22:48:00Z,28.1560,-82.7580,58.85,1111122 
COMPS,ioos:station:USF.COMPS:TAR:1,2014-07-01T22:54:00Z,28.1560,-82.7580,56.59,1111122 
COMPS,ioos:station:USF.COMPS:TAR:1,2014-07-01T23:00:00Z,28.1560,-82.7580,50.84,1111122 
COMPS,ioos:station:USF.COMPS:TAR:1,2014-07-01T23:06:00Z,28.1560,-82.7580,50.63,1111122 
COMPS,ioos:station:USF.COMPS:TAR:1,2014-07-01T23:12:00Z,28.1560,-82.7580,51.04,1111122 
COMPS,ioos:station:USF.COMPS:TAR:1,2014-07-01T23:18:00Z,28.1560,-82.7580,51.93,1111122 
COMPS,ioos:station:USF.COMPS:TAR:1,2014-07-01T23:24:00Z,28.1560,-82.7580,54.19,1111122 
COMPS,ioos:station:USF.COMPS:TAR:1,2014-07-01T23:30:00Z,28.1560,-82.7580,55.43,1111122 
COMPS,ioos:station:USF.COMPS:TAR:1,2014-07-01T23:36:00Z,28.1560,-82.7580,57.67,1111122 
COMPS,ioos:station:USF.COMPS:TAR:1,2014-07-01T23:42:00Z,28.1560,-82.7580,58.89,1111122 
COMPS,ioos:station:USF.COMPS:TAR:1,2014-07-01T23:48:00Z,28.1560,-82.7580,72.78,1111122 
COMPS,ioos:station:USF.COMPS:TAR:1,2014-07-01T23:54:00Z,28.1560,-82.7580,82.83,1111122 
COMPS,ioos:station:USF.COMPS:TAR:1,2014-07-02T00:00:00Z,28.1560,-82.7580,83.18,1111122 
COMPS,ioos:station:USF.COMPS:TAR:1,2014-07-02T00:06:00Z,28.1560,-82.7580,84.16,1111122 
COMPS,ioos:station:USF.COMPS:TAR:1,2014-07-02T00:12:00Z,28.1560,-82.7580,86.38,1111122 
COMPS,ioos:station:USF.COMPS:TAR:1,2014-07-02T00:18:00Z,28.1560,-82.7580,85.97,1111122 
COMPS,ioos:station:USF.COMPS:TAR:1,2014-07-02T00:24:00Z,28.1560,-82.7580,84.05,1111122 
COMPS,ioos:station:USF.COMPS:TAR:1,2014-07-02T00:30:00Z,28.1560,-82.7580,82.18,1111122 
COMPS,ioos:station:USF.COMPS:TAR:1,2014-07-02T00:36:00Z,28.1560,-82.7580,82.33,1111122 
COMPS,ioos:station:USF.COMPS:TAR:1,2014-07-02T00:42:00Z,28.1560,-82.7580,82.17,1111122 
COMPS,ioos:station:USF.COMPS:TAR:1,2014-07-02T00:48:00Z,28.1560,-82.7580,82.67,1111122 
COMPS,ioos:station:USF.COMPS:TAR:1,2014-07-02T00:54:00Z,28.1560,-82.7580,82.84,1111122 
COMPS,ioos:station:USF.COMPS:TAR:1,2014-07-02T01:00:00Z,28.1560,-82.7580,80.38,1111122 
COMPS,ioos:station:USF.COMPS:TAR:1,2014-07-02T01:06:00Z,28.1560,-82.7580,82.77,1111122 
COMPS,ioos:station:USF.COMPS:TAR:1,2014-07-02T01:12:00Z,28.1560,-82.7580,82.76,1111122 
COMPS,ioos:station:USF.COMPS:TAR:1,2014-07-02T01:18:00Z,28.1560,-82.7580,83.8,1111122 
COMPS,ioos:station:USF.COMPS:TAR:1,2014-07-02T01:24:00Z,28.1560,-82.7580,83.19,1111122 
COMPS,ioos:station:USF.COMPS:TAR:1,2014-07-02T01:30:00Z,28.1560,-82.7580,86.22,1111122 
COMPS,ioos:station:USF.COMPS:TAR:1,2014-07-02T01:36:00Z,28.1560,-82.7580,88.24,1111122 
COMPS,ioos:station:USF.COMPS:TAR:1,2014-07-02T01:42:00Z,28.1560,-82.7580,85.99,1111122 
COMPS,ioos:station:USF.COMPS:TAR:1,2014-07-02T01:48:00Z,28.1560,-82.7580,80.74,1111122 
COMPS,ioos:station:USF.COMPS:TAR:1,2014-07-02T01:54:00Z,28.1560,-82.7580,82.58,1111122 
COMPS,ioos:station:USF.COMPS:TAR:1,2014-07-02T02:00:00Z,28.1560,-82.7580,83.98,1111122 
COMPS,ioos:station:USF.COMPS:TAR:1,2014-07-02T02:06:00Z,28.1560,-82.7580,80.78,1111122 
COMPS,ioos:station:USF.COMPS:TAR:1,2014-07-02T02:12:00Z,28.1560,-82.7580,84.35,1111122 
COMPS,ioos:station:USF.COMPS:TAR:1,2014-07-02T02:18:00Z,28.1560,-82.7580,85.89,1111122 
COMPS,ioos:station:USF.COMPS:TAR:1,2014-07-02T02:24:00Z,28.1560,-82.7580,83.43,1111122 
COMPS,ioos:station:USF.COMPS:TAR:1,2014-07-02T02:30:00Z,28.1560,-82.7580,85.66,1111122 
COMPS,ioos:station:USF.COMPS:TAR:1,2014-07-02T02:36:00Z,28.1560,-82.7580,87.43,1111122 
COMPS,ioos:station:USF.COMPS:TAR:1,2014-07-02T02:42:00Z,28.1560,-82.7580,88.23,1111122 
COMPS,ioos:station:USF.COMPS:TAR:1,2014-07-02T02:48:00Z,28.1560,-82.7580,88.52,1111122 
COMPS,ioos:station:USF.COMPS:TAR:1,2014-07-02T02:54:00Z,28.1560,-82.7580,86.73,1111122 
COMPS,ioos:station:USF.COMPS:TAR:1,2014-07-02T03:00:00Z,28.1560,-82.7580,86.46,1111122 
COMPS,ioos:station:USF.COMPS:TAR:1,2014-07-02T03:06:00Z,28.1560,-82.7580,86.38,1111122 